Regional Weather Roundup
Issued by NWS Sterling, VA

Home | Current Version | Previous Version | Graphics & Text | Print | Product List | Glossary Off
Versions: 1 2 3 4 5 6 7 8 9 10 11 12 13 14 15 16 17 18 19 20 21 22 23 24 25 26 27

000
ASUS41 KLWX 212011
RWRLWX

REGIONAL WEATHER ROUNDUP
NATIONAL WEATHER SERVICE BALTIMORE MD/WASHINGTON DC
300 PM EST TUE FEB 21 2017

Note: "FAIR" indicates few or no clouds below 12,000 feet
with no significant weather and/or obstructions to visibility.
 TC=TEMPERATURE CELSIUS

 * =Non NWS site. Station does not report precipitation (e.g. rain,
    snow, etc.), thunder, or fog.

DCZ001-MDZ009-015-VAZ040>042-051-053>054-212100-
WASHINGTON METRO

CITY           SKY/WX    TMP DP  RH WIND       PRES   REMARKS
WASHINGTON NAT CLOUDY    57  32  38 S12       30.20F
DULLES         PTSUNNY   54  29  38 SE12      30.17F
ANDREWS AFB    CLOUDY    56  29  36 S12       30.19F
FT BELVOIR     MOSUNNY   56  32  40 SE10      30.19F
QUANTICO       PTSUNNY   53  38  56 SE5       30.20F
COLLEGE PARK*  CLOUDY    55  30  38 S8        30.19F
LEESBURG*      SUNNY     57  34  41 SE12      30.16F
MANASSAS*      SUNNY     57  32  38 S9        30.18F
GAITHERSBURG*  CLOUDY    55  27  33 SE13      30.21F

$$

MDZ006>007-011-014-212100-
BALTIMORE METRO

CITY           SKY/WX    TMP DP  RH WIND       PRES   REMARKS
BWI AIRPORT    CLOUDY    52  32  46 E10       30.20F
MD SCIENCE CTR   N/A     51  31  46 MISG      30.21F
MARTIN STATE   PTSUNNY   52  34  50 SE9       30.24F
ANNAPOLIS      CLOUDY    47  38  71 SE10      30.22F

$$

MDZ012-015-019>023-212100-
MARYLAND EASTERN SHORE

CITY           SKY/WX    TMP DP  RH WIND       PRES   REMARKS
OCEAN CITY     CLOUDY    47  37  68 SE9       30.26F
SALISBURY      CLOUDY    53  36  52 S9        30.23F
BAY BRIDGE AP* CLOUDY    52  30  43 S6        30.22F
EASTON*        PTSUNNY   55  28  35 SW7       30.26F

$$

MDZ017>025-212100-
SOUTHERN MARYLAND

CITY           SKY/WX    TMP DP  RH WIND       PRES   REMARKS
PATUXENT RIVER PTSUNNY   50  40  68 SE10      30.22F
ST INIGOES     PTSUNNY   53  39  59 SE9       30.22F
LEONARDTOWN*   CLOUDY    54  32  43 SE7       30.23F

$$

MDZ003>005-212100-
NORTH CENTRAL MARYLAND

CITY           SKY/WX    TMP DP  RH WIND       PRES   REMARKS
FREDERICK*     SUNNY     55  30  38 S10       30.20F
HAGERSTOWN APT MOSUNNY   55  32  41 S14       30.14F
WESTMINSTER*   CLOUDY    55  30  38 S9        30.16F

$$

MDZ501>502-212100-
WESTERN MARYLAND

CITY           SKY/WX    TMP DP  RH WIND       PRES   REMARKS
OAKLAND*       CLOUDY    50  32  50 SE12      30.06S
CUMBERLAND*    CLOUDY    59  32  36 SE7       30.13F

$$

VAZ025>031-212100-
SHENANDOAH VALLEY

CITY           SKY/WX    TMP DP  RH WIND       PRES   REMARKS
WINCHESTER*    PTSUNNY   55  32  41 S10G16    30.12F
FRONT ROYAL*   CLOUDY    57  34  41 SE5       30.11F
LURAY*         PTSUNNY   59  36  41 SW8       30.12F
NEW MARKET*    CLOUDY    59  32  35 SW12G20   30.11F
STAUNTON*      CLOUDY    57  33  40 S7        30.14F
WAYNESBORO*    MOSUNNY   58  32  37 SE5       30.12F

$$

WVZ021-048>050-054>055-212100-
EASTERN WEST VIRGINIA PANHANDLE

CITY           SKY/WX    TMP DP  RH WIND       PRES   REMARKS
MARTINSBURG    MOSUNNY   56  33  42 SE12G17   30.12F
PETERSBURG*    CLOUDY    65  40  39 S6        30.07S

$$

VAZ036>039-050-212100-
CENTRAL FOOTHILLS

CITY           SKY/WX    TMP DP  RH WIND       PRES   REMARKS
CHARLOTTESVILL MOSUNNY   60  35  39 S8G18     30.15F
CULPEPER*      CLOUDY    60  34  38 S7        30.18F
ORANGE*        CLOUDY    55  32  41 CALM      30.18F
GORDONSVILLE*  CLOUDY    58  36  43 S9        30.16F
WARRENTON*     CLOUDY    59  26  28 S8        30.17F

$$

VAZ055>057-212100-
NORTH AND CENTRAL PIEDMONT

CITY           SKY/WX    TMP DP  RH WIND       PRES   REMARKS
FREDERICKSBRG* CLOUDY    58  36  42 S10       30.18F
STAFFORD*      CLOUDY    57  34  43 S6        30.22F

$$

NCZ024-NYZ072-PAZ021-071-VAZ022-071-212100-
OTHER REGIONAL OBSERVATIONS

CITY           SKY/WX    TMP DP  RH WIND       PRES   REMARKS
NEW YORK CITY  CLOUDY    44  30  57 VRB7G17   30.26F
PHILADELPHIA   CLOUDY    51  29  42 SW10      30.23F
PITTSBURGH     CLOUDY    65  41  41 SW10      29.99S
ROANOKE        MOSUNNY   60  36  40 SE12      30.15F
RICHMOND       CLOUDY    58  36  43 SE10      30.19F
RALEIGH        CLOUDY    65  35  33 E7        30.16F

$$

ANZ530>537-212100-
MARINE OBSERVATIONS

STATION/POSITION TIME  TEMP    WIND        PRES
                       AIR SEA DIR/SP/G
                 (UTC) (F)     (DEG/KT/KT) (MB)
THOMAS PT LIGHT  2000   46 42  160/ 12/ 13   N/A
BALT KEY BRIDGE  1948   46     130/ 10/ 12 1023.1F
COVE POINT       1948   44     180/  9/  9 1024.2F
LEWISETTA        1948   46 47  110/ 13/ 15 1023.0F
SOLOMONS ISLAND  1948   48 44  130/ 14/ 15   N/A
PINEY POINT      1948          140/ 13/ 13   N/A

$$





USA.gov is the U.S. government's official web portal to all federal, state and local government web resources and services.